| time (UTC) | temp F | wind direction | speed MPH | gust MPH | rain 1hr in | rain 24hr in | rain mn in | humidity % | barometer mb |
| 20260506123010 | 73 | 247 | 6.0 | 15.0 | 0.00 | 0.00 | 0.00 | 47 | 1004.8 |
| 20260506121509 | 73 | 246 | 4.0 | 12.0 | 0.00 | 0.00 | 0.00 | 47 | 1004.7 |
| 20260506120008 | 73 | 283 | 5.0 | 10.0 | 0.00 | 0.00 | 0.00 | 47 | 1004.7 |
| 20260506114527 | 73 | 238 | 5.0 | 14.0 | 0.00 | 0.00 | 0.00 | 48 | 1004.7 |
| 20260506113107 | 74 | 318 | 6.0 | 12.0 | 0.00 | 0.00 | 0.00 | 46 | 1004.6 |
| 20260506111506 | 73 | 234 | 8.0 | 19.0 | 0.00 | 0.00 | 0.00 | 46 | 1004.7 |
| 20260506110007 | 73 | 241 | 10.0 | 17.0 | 0.00 | 0.00 | 0.00 | 45 | 1004.4 |
| 20260506104505 | 73 | 235 | 8.0 | 19.0 | 0.00 | 0.00 | 0.00 | 45 | 1004.5 |
| 20260506103003 | 72 | 191 | 7.0 | 18.0 | 0.00 | 0.00 | 0.00 | 46 | 1004.6 |
| 20260506101503 | 73 | 102 | 5.0 | 19.0 | 0.00 | 0.00 | 0.00 | 45 | 1004.5 |
| 20260506100002 | 73 | 203 | 6.0 | 17.0 | 0.00 | 0.00 | 0.00 | 45 | 1004.5 |
| 20260506094602 | 73 | 151 | 2.0 | 17.0 | 0.00 | 0.00 | 0.00 | 43 | 1004.6 |
| 20260506094502 | 74 | 321 | 6.0 | 17.0 | 0.00 | 0.00 | 0.00 | 42 | 1004.6 |
| 20260506093059 | 73 | 117 | 4.0 | 14.0 | 0.00 | 0.00 | 0.00 | 44 | 1004.6 |
| 20260506091557 | 72 | 264 | 7.0 | 16.0 | 0.00 | 0.00 | 0.00 | 42 | 1004.6 |
| 20260506090055 | 72 | 249 | 7.0 | 17.0 | 0.00 | 0.00 | 0.00 | 42 | 1004.6 |
| 20260506084600 | 72 | 170 | 6.0 | 15.0 | 0.00 | 0.00 | 0.00 | 40 | 1004.5 |
| 20260506083052 | 71 | 252 | 3.0 | 14.0 | 0.00 | 0.00 | 0.00 | 46 | 1004.4 |
| 20260506081550 | 71 | 174 | 4.0 | 11.0 | 0.00 | 0.00 | 0.00 | 47 | 1004.4 |
| 20260506073043 | 70 | 140 | 2.0 | 8.0 | 0.00 | 0.00 | 0.00 | 48 | 1004.8 |
| 20260506071538 | 67 | 149 | 3.0 | 7.0 | 0.00 | 0.00 | 0.00 | 53 | 1004.9 |
| 20260506061522 | 61 | 135 | 2.0 | 7.0 | 0.00 | 0.00 | 0.00 | 69 | 1005.2 |
| 20260506044558 | 54 | 69 | 4.0 | 8.0 | 0.00 | 0.00 | 0.00 | 80 | 1005.4 |
| 20260506043055 | 53 | 51 | 2.0 | 6.0 | 0.00 | 0.00 | 0.00 | 83 | 1005.4 |
| 20260506041554 | 52 | 53 | 2.0 | 6.0 | 0.00 | 0.00 | 0.00 | 83 | 1005.5 |
| 20260506040055 | 52 | 127 | 3.0 | 10.0 | 0.00 | 0.00 | 0.00 | 83 | 1005.6 |
| 20260506034548 | 51 | 53 | 3.0 | 6.0 | 0.00 | 0.00 | 0.00 | 83 | 1005.5 |
| 20260506033045 | 51 | 94 | 3.0 | 7.0 | 0.00 | 0.00 | 0.00 | 82 | 1005.8 |
| 20260506031542 | 51 | 82 | 2.0 | 7.0 | 0.00 | 0.00 | 0.00 | 81 | 1005.6 |
| 20260506030056 | 50 | 63 | 2.0 | 7.0 | 0.00 | 0.00 | 0.00 | 79 | 1005.7 |
| 20260506024550 | 50 | 89 | 3.0 | 5.0 | 0.00 | 0.00 | 0.00 | 78 | 1005.8 |
| 20260506023035 | 51 | 46 | 2.0 | 5.0 | 0.00 | 0.00 | 0.00 | 78 | 1006.0 |
| 20260506021534 | 51 | 46 | 2.0 | 4.0 | 0.00 | 0.00 | 0.00 | 78 | 1006.0 |
| 20260506020033 | 51 | 56 | 2.0 | 5.0 | 0.00 | 0.00 | 0.00 | 78 | 1006.0 |
| 20260506014543 | 51 | 1 | 1.0 | 5.0 | 0.00 | 0.00 | 0.00 | 77 | 1006.0 |
| 20260506013032 | 52 | 32 | 1.0 | 4.0 | 0.00 | 0.00 | 0.00 | 76 | 1006.2 |
| 20260506011536 | 52 | 46 | 2.0 | 6.0 | 0.00 | 0.00 | 0.00 | 76 | 1006.2 |
| 20260506010027 | 52 | 18 | 3.0 | 6.0 | 0.00 | 0.00 | 0.00 | 76 | 1006.2 |
| 20260506004542 | 53 | 59 | 2.0 | 10.0 | 0.00 | 0.00 | 0.00 | 76 | 1006.2 |
| 20260506003031 | 53 | 322 | 2.0 | 5.0 | 0.00 | 0.00 | 0.00 | 77 | 1006.1 |
| 20260506001521 | 54 | 314 | 2.0 | 6.0 | 0.00 | 0.00 | 0.00 | 77 | 1006.1 |
| 20260506000022 | 55 | 15 | 1.0 | 4.0 | 0.00 | 0.00 | 0.00 | 77 | 1006.1 |
| 20260505234514 | 55 | 68 | 2.0 | 5.0 | 0.00 | 0.00 | 0.00 | 77 | 1005.9 |
| 20260505233012 | 56 | 8 | 2.0 | 7.0 | 0.00 | 0.00 | 0.00 | 77 | 1005.9 |
| 20260505231508 | 57 | 42 | 2.0 | 9.0 | 0.00 | 0.00 | 0.00 | 77 | 1005.9 |
| 20260505230006 | 57 | 47 | 3.0 | 8.0 | 0.00 | 0.00 | 0.00 | 76 | 1005.9 |
| 20260505224504 | 58 | 340 | 2.0 | 5.0 | 0.00 | 0.00 | 0.00 | 75 | 1005.8 |
| 20260505223001 | 59 | 58 | 3.0 | 7.0 | 0.00 | 0.00 | 0.00 | 75 | 1005.9 |
| 20260505221604 | 59 | 350 | 4.0 | 8.0 | 0.00 | 0.00 | 0.00 | 74 | 1005.9 |
| 20260505220055 | 60 | 47 | 4.0 | 11.0 | 0.00 | 0.00 | 0.00 | 74 | 1006.0 |
| 20260505214559 | 60 | 58 | 3.0 | 10.0 | 0.00 | 0.00 | 0.00 | 73 | 1006.1 |
| 20260505213059 | 61 | 46 | 3.0 | 7.0 | 0.00 | 0.00 | 0.00 | 71 | 1006.0 |
| 20260505211554 | 63 | 350 | 1.0 | 8.0 | 0.00 | 0.00 | 0.00 | 69 | 1005.8 |
| 20260505210053 | 64 | 11 | 2.0 | 13.0 | 0.00 | 0.00 | 0.00 | 67 | 1005.7 |
| 20260505204553 | 64 | 41 | 7.0 | 15.0 | 0.00 | 0.00 | 0.00 | 67 | 1005.7 |
| 20260505203056 | 65 | 18 | 2.0 | 10.0 | 0.00 | 0.00 | 0.00 | 66 | 1005.7 |
| 20260505201553 | 65 | 58 | 5.0 | 13.0 | 0.00 | 0.00 | 0.00 | 66 | 1005.6 |
| 20260505200052 | 66 | 4 | 4.0 | 8.0 | 0.00 | 0.00 | 0.00 | 64 | 1005.5 |
| 20260505194557 | 67 | 348 | 6.0 | 11.0 | 0.00 | 0.00 | 0.00 | 62 | 1005.4 |
| 20260505193105 | 68 | 1 | 3.0 | 7.0 | 0.00 | 0.00 | 0.00 | 53 | 1005.3 |
| 20260505191553 | 68 | 322 | 5.0 | 10.0 | 0.00 | 0.00 | 0.00 | 44 | 1005.0 |
| 20260505190051 | 67 | 347 | 3.0 | 6.0 | 0.00 | 0.00 | 0.00 | 38 | 1004.9 |
| 20260505184554 | 70 | 135 | 0.0 | 1.0 | 0.00 | 0.00 | 0.00 | 37 | 1004.6 |
| 20260505183049 | 72 | 161 | 0.0 | 3.0 | 0.00 | 0.00 | 0.00 | 32 | 1004.6 |
| 20260505181547 | 74 | 168 | 1.0 | 2.0 | 0.00 | 0.00 | 0.00 | 30 | 1004.6 |
| 20260505180047 | 75 | 135 | 1.0 | 4.0 | 0.00 | 0.00 | 0.00 | 28 | 1004.6 |
| 20260505174546 | 76 | 171 | 2.0 | 4.0 | 0.00 | 0.00 | 0.00 | 28 | 1004.5 |
| 20260505173044 | 76 | 150 | 2.0 | 7.0 | 0.00 | 0.00 | 0.00 | 27 | 1004.6 |
| 20260505171548 | 77 | 169 | 2.0 | 5.0 | 0.00 | 0.00 | 0.00 | 26 | 1004.6 |
| 20260505170043 | 77 | 122 | 4.0 | 10.0 | 0.00 | 0.00 | 0.00 | 26 | 1004.7 |
| 20260505164544 | 77 | 159 | 5.0 | 9.0 | 0.00 | 0.00 | 0.00 | 26 | 1004.8 |
| 20260505163042 | 78 | 1 | 3.0 | 10.0 | 0.00 | 0.00 | 0.00 | 25 | 1004.9 |
| 20260505161539 | 78 | 160 | 5.0 | 12.0 | 0.00 | 0.00 | 0.00 | 25 | 1004.9 |
| 20260505153043 | 80 | 133 | 8.0 | 16.0 | 0.00 | 0.00 | 0.00 | 22 | 1005.1 |
| 20260505151536 | 80 | 232 | 4.0 | 10.0 | 0.00 | 0.00 | 0.00 | 25 | 1005.1 |
| 20260505124514 | 80 | 276 | 6.0 | 11.0 | 0.00 | 0.00 | 0.00 | 26 | 1006.7 |